#timestamp,LO_Frequency,Hit,StdDev 
1700856015.7,286047000.3,P
1700856035.6,286046998.4,N
1700856055.4,286046998.2,N
1700856075.2,286046998.2,N
1700856095.1,286046999.0,N
1700856096.0,286046999.0,N
1700856115.8,286046997.4,N
1700856135.7,286046999.1,N
1700856155.5,286046999.6,N
1700856175.3,286046996.6,N
1700856195.2,286046999.6,N
1700856215.9,286046997.2,N
1700856235.7,286046999.1,N
1700856255.6,286046996.9,N
1700856275.4,286046999.3,N
1700856295.3,286046996.5,N
1700856315.1,286046997.0,N
1700856316.0,286046997.0,N
1700856335.8,286046996.6,N
1700856355.7,286046999.6,N
1700856375.5,286046998.7,N
1700856395.3,286046999.3,N
1700856415.2,286046998.6,N
1700856435.0,286046999.3,N
1700856435.9,286046999.3,N
1700856455.8,286046998.3,N
1700856475.6,286047000.7,N
1700856495.4,286047001.1,N
1700856515.3,286046998.6,N
1700856535.1,286046998.8,N
1700856555.9,286046998.7,N
1700856575.7,286046998.8,N
1700856595.5,286046998.1,N
1700856615.4,286046998.7,N
1700856635.2,286046998.5,N
1700856655.0,286046998.1,N
1700856655.9,286046998.1,N
1700856675.8,286046998.6,N
1700856695.6,286046998.3,N
1700856715.5,286047000.4,N
1700856735.3,286047000.5,N
1700856755.1,286047002.8,N
1700856775.9,286047000.3,N
1700856795.7,286047001.1,N
1700856815.5,286047000.6,N
1700856835.4,286046998.7,N
1700856855.2,286047001.0,N
1700856875.1,286047001.2,N
1700856876.0,286047001.2,N
1700856895.8,286047000.4,N
1700856915.6,286047000.1,N
1700856935.5,286047000.5,N
1700856955.3,286047000.8,N
1700856975.2,286047001.1,N
1700856995.9,286046998.1,N
1700857015.7,286047000.8,N
1700857035.6,286047000.7,N
1700857055.4,286047000.0,N
1700857075.2,286047001.2,N
1700857095.1,286047001.0,N
1700857096.0,286047001.0,N
1700857115.8,286047001.1,N
1700857135.7,286047000.2,N
1700857155.5,286047001.0,N
1700857175.3,286047000.7,N
1700857195.2,286047000.2,N
1700857215.9,286047001.2,N
1700857235.7,286047000.9,N
1700857255.6,286047002.5,N
1700857275.4,286047002.5,N
1700857295.2,286047002.7,N
1700857315.1,286047002.6,N
1700857335.8,286047000.2,N
1700857355.7,286046998.1,N
1700857375.5,286046998.8,N
1700857395.4,286046997.1,N
1700857415.2,286046996.5,N
1700857435.0,286046996.6,N
1700857435.9,286046996.6,N
1700857455.8,286046999.1,N
1700857475.6,286046999.3,N
1700857495.5,286046999.1,N
1700857515.3,286046999.4,N
1700857535.1,286046998.9,N
1700857555.9,286046999.3,N
1700857575.7,286046999.3,N
1700857595.5,286046999.4,N
1700857615.4,286046998.9,N
1700857635.2,286046999.3,N
1700857655.1,286046998.7,N
1700857656.0,286046998.7,N
1700857675.8,286046998.1,N
1700857695.6,286046999.3,N
1700857715.5,286046998.7,N
1700857735.3,286047000.9,N
1700857755.2,286047000.9,N
1700857775.9,286047000.8,N
1700857795.7,286047000.6,N
1700857815.6,286047000.3,N
1700857835.4,286046998.3,N
1700857855.2,286047000.8,N
1700857875.1,286047000.5,N
1700857876.0,286047000.5,N
1700857895.8,286046999.9,N
1700857915.7,286046998.5,N
1700857935.5,286047001.0,N
1700857955.3,286047001.1,N
1700857975.2,286046998.7,N
1700857995.0,286047001.2,N
1700857995.9,286047001.2,N
1700858015.7,286046999.9,N
1700858035.6,286047000.3,N
1700858055.4,286047000.0,N
1700858075.3,286047001.1,N
1700858095.1,286046998.4,N
1700858115.8,286047000.5,N
1700858135.7,286047000.4,N
1700858155.5,286047000.0,N
1700858175.4,286047002.8,N
1700858195.2,286047001.1,N
1700858215.1,286047000.4,N
1700858216.0,286047000.4,N
1700858235.8,286046998.6,N
1700858255.6,286047000.0,N
1700858275.5,286047002.7,N
1700858295.3,286046999.9,N
1700858315.2,286047000.4,N
1700858335.9,286047002.3,N
1700858355.7,286047002.2,N
1700858375.6,286047002.2,N
1700858395.4,286047002.3,N
1700858415.2,286047002.8,N
1700858435.1,286047000.1,N
1700858436.0,286047000.1,N
1700858455.8,286047002.7,N
1700858475.7,286047002.6,N
1700858495.5,286047000.1,N
1700858515.3,286047002.1,N
1700858535.2,286047000.3,N
1700858555.0,286047000.2,N
1700858555.9,286047000.2,N
1700858575.8,286047000.0,N
1700858595.6,286047002.7,N
1700858615.5,286047002.7,N
1700858635.3,286047002.3,N
1700858655.1,286046999.9,N
1700858675.9,286046999.7,N
1700858695.7,286047002.0,N
1700858715.6,286047002.5,N
1700858735.4,286047002.5,N
1700858755.2,286047002.2,N
1700858775.1,286047002.2,N
1700858776.0,286047002.2,N
1700858795.8,286047002.6,N
1700858815.7,286046999.9,N
1700858835.5,286047000.0,N
1700858855.3,286047000.7,N
1700858875.2,286047000.5,N
1700858895.0,286047002.3,N
1700858895.9,286047002.3,N
1700858915.7,286047002.6,N
1700858935.6,286047002.3,N
1700858955.4,286047000.9,N
1700858975.3,286046999.9,N
1700858995.1,286047000.1,N
1700859015.9,286047001.6,N
1700859035.7,286047003.9,Y
1700859055.5,286047000.3,P
1700859075.4,286047001.9,P
1700859095.2,286047002.6,P
1700859115.0,286047000.1,N
1700859115.9,286047000.1,N
1700859135.8,286046999.9,N
1700859155.6,286047001.0,N
1700859175.5,286046999.9,N
1700859195.3,286047000.4,N
1700859215.1,286047000.5,N
1700859235.9,286046999.4,N
1700859255.7,286046998.6,N
1700859275.6,286047001.2,N
1700859295.4,286047000.8,N
1700859315.2,286046998.5,N
1700859335.1,286046998.7,N
1700859336.0,286046998.7,N
1700859355.8,286046996.7,N
1700859375.6,286046997.1,N
1700859395.5,286046999.2,N
1700859415.3,286046999.6,N
1700859435.2,286046998.4,N
1700859455.9,286046998.7,N
1700859475.7,286046998.6,N
1700859495.6,286046998.1,N
1700859515.4,286047000.3,N
1700859535.2,286047002.5,N
1700859555.1,286047000.0,N
1700859556.0,286047000.0,N
1700859575.8,286047002.6,N
1700859595.7,286047000.9,N
